Kansas City, MO

10:10 AM CDT on September 25, 2016 (GMT -0500)
Kansas City Downtown

Weather History for KMKC - November, 2013

Change the Weather History Date:

Wednesday, November 6, 2013

  Actual Average Record
Temperature  
Mean Temperature 42 °F -  
Max Temperature 46 °F 55 °F 75 °F (1999)
Min Temperature 37 °F 39 °F 28 °F (2003)
Degree Days  
Heating Degree Days 24    
Moisture  
Dew Point 35 °F    
Average Humidity 77    
Maximum Humidity 93    
Minimum Humidity 59    
Precipitation  
Precipitation 0.13 in - - ()
Sea Level Pressure  
Sea Level Pressure 30.16 in    
Wind  
Wind Speed 10 mph (WNW)    
Max Wind Speed 16 mph    
Max Gust Speed 24 mph    
Visibility 9 miles    
Events Rain    
Averages and records for this station are not official NWS values.
T = Trace of Precipitation, MM = Missing Value Source: NWS Daily Summary

Daily Weather History Graph

Daily Weather History Graph

Search for Another Location

Airport or City:

Trip Planner

Search our weather history database for the weather conditions in past years. The results will help you decide how hot, cold, wet, or windy it might be!

Date:

Astronomy

Nov. 06, 2013 Rise Set
Actual Time 6:51 AM CST 5:11 PM CST
Civil Twilight 6:23 AM CST 5:39 PM CST
Nautical Twilight 5:51 AM CST 6:11 PM CST
Astronomical Twilight 5:20 AM CST 6:42 PM CST
Moon 10:06 AM CST (11/6) 8:17 PM CST (11/6)
Length of Visible Light 11h 16m
Length of Day
10h 19m
Waxing Crescent, 14% of the Moon is Illuminated
Nov 6
Waxing Crescent
Nov 9
First Quarter
Nov 17
Full
Nov 25
Last Quarter
Dec 2
New

Hourly Weather History & Observations

Time (CST) Temp. Windchill Dew Point Humidity Pressure Visibility Wind Dir Wind Speed Gust Speed Precip Events Conditions
12:11 AM 44.6 °F 38.8 °F 42.8 °F 93% 29.94 in 2.5 mi NW 11.5 mph 19.6 mph 0.06 in Rain Heavy Rain
12:21 AM 44.6 °F 38.8 °F 42.8 °F 93% 29.94 in 4.0 mi NW 11.5 mph 19.6 mph 0.08 in Rain Rain
12:52 AM 44.6 °F 39.7 °F 41.0 °F 87% 29.98 in 5.0 mi WNW 9.2 mph - 0.11 in Rain Light Rain
12:54 AM 44.1 °F 39.0 °F 41.0 °F 89% 29.99 in 5.0 mi West 9.2 mph - 0.11 in Rain Light Rain
1:54 AM 42.1 °F 34.2 °F 37.9 °F 85% 29.98 in 10.0 mi WNW 16.1 mph 24.2 mph 0.02 in   Overcast
2:54 AM 41.0 °F 33.5 °F 36.0 °F 82% 30.01 in 10.0 mi NW 13.8 mph 21.9 mph N/A   Overcast
3:02 AM 41.0 °F 33.5 °F 35.6 °F 81% 30.00 in 10.0 mi NW 13.8 mph 23.0 mph N/A   Overcast
3:32 AM 39.2 °F 32.5 °F 35.6 °F 87% 30.01 in 9.0 mi NW 10.4 mph - N/A   Overcast
3:54 AM 39.9 °F 32.9 °F 36.0 °F 86% 30.03 in 8.0 mi WNW 11.5 mph 18.4 mph N/A   Overcast
4:32 AM 39.2 °F 30.8 °F 35.6 °F 87% 30.02 in 9.0 mi NW 15.0 mph 23.0 mph N/A   Overcast
4:54 AM 39.9 °F 34.5 °F 35.1 °F 83% 30.04 in 10.0 mi NNW 8.1 mph 19.6 mph N/A   Overcast
5:54 AM 39.0 °F 32.3 °F 34.0 °F 82% 30.10 in 10.0 mi NW 10.4 mph 20.7 mph N/A   Overcast
6:29 AM 39.2 °F 32.5 °F 33.8 °F 81% 30.11 in 9.0 mi NW 10.4 mph - N/A   Overcast
6:54 AM 39.0 °F 33.4 °F 34.0 °F 82% 30.11 in 8.0 mi NNW 8.1 mph - N/A   Overcast
7:54 AM 39.0 °F 32.3 °F 33.1 °F 79% 30.15 in 10.0 mi NNW 10.4 mph 17.3 mph N/A   Overcast
8:54 AM 39.0 °F 32.3 °F 33.1 °F 79% 30.19 in 10.0 mi NNW 10.4 mph 20.7 mph N/A   Overcast
9:54 AM 41.0 °F 33.9 °F 33.1 °F 73% 30.21 in 10.0 mi NW 12.7 mph - N/A   Overcast
10:54 AM 41.0 °F 35.2 °F 33.1 °F 73% 30.23 in 10.0 mi NNW 9.2 mph - N/A   Overcast
11:54 AM 42.1 °F 37.1 °F 34.0 °F 73% 30.25 in 10.0 mi NW 8.1 mph - N/A   Overcast
12:54 PM 43.0 °F 37.2 °F 33.1 °F 68% 30.24 in 10.0 mi WNW 10.4 mph - N/A   Mostly Cloudy
1:54 PM 44.1 °F 39.5 °F 32.0 °F 63% 30.25 in 10.0 mi NW 8.1 mph - N/A   Scattered Clouds
2:13 PM 46.4 °F 41.9 °F 33.8 °F 62% 30.25 in 10.0 mi WNW 9.2 mph - N/A   Mostly Cloudy
2:26 PM 46.4 °F 41.9 °F 33.8 °F 62% 30.25 in 10.0 mi WNW 9.2 mph - N/A   Mostly Cloudy
2:54 PM 46.0 °F 41.9 °F 33.1 °F 61% 30.26 in 10.0 mi West 8.1 mph - N/A   Overcast
3:54 PM 46.9 °F - 33.1 °F 59% 30.27 in 10.0 mi West 6.9 mph - N/A   Overcast
4:54 PM 45.0 °F - 32.0 °F 60% 30.27 in 10.0 mi Calm Calm - N/A   Mostly Cloudy
5:54 PM 44.1 °F - 33.1 °F 65% 30.28 in 10.0 mi Calm Calm - N/A   Mostly Cloudy
6:54 PM 43.0 °F 40.3 °F 33.1 °F 68% 30.30 in 10.0 mi WSW 4.6 mph - N/A   Scattered Clouds
7:54 PM 41.0 °F 38.0 °F 33.1 °F 73% 30.31 in 10.0 mi WSW 4.6 mph - N/A   Clear
8:54 PM 41.0 °F 37.1 °F 33.1 °F 73% 30.32 in 10.0 mi West 5.8 mph - N/A   Clear
9:54 PM 39.0 °F 34.8 °F 33.1 °F 79% 30.35 in 10.0 mi WSW 5.8 mph - N/A   Clear
10:54 PM 37.9 °F 35.5 °F 32.0 °F 79% 30.35 in 10.0 mi WSW 3.5 mph - N/A   Clear
11:54 PM 37.0 °F 34.5 °F 32.0 °F 82% 30.36 in 10.0 mi SW 3.5 mph - N/A   Clear